Weather observations for the past three days for
Pease Air Force Base / Portsmouth
Metric (Imperial)
Date Time (edt) Wind (kph) Vis. (km) Weather Sky Cond. Temperature (ºC) Relative Humidity Wind Chill (°C) Heat Index (°C) Pressure Precipitation (cm)
Air Dwpt 6 hour altimeter (cm) sea level (mb) 1 hr 3 hr 6 hr
Max. Min.
15 19:55 S 13 16.09 Mostly Cloudy FEW060 SCT130 BKN250 26.5 20.3 34.3 26.5 69% 28 75.57 1007.6
15 18:55 S 13 16.09 Mostly Cloudy FEW055 SCT120 BKN180 31.5 21.9 57% 35 75.54 1007.3
15 17:55 S 15 16.09 Mostly Cloudy FEW055 SCT120 BKN180 32.9 20.4 48% 35 75.54 1007.3
15 16:55 SW 11 16.09 Mostly Cloudy FEW065 SCT120 BKN180 32.6 20.8 50% 35 75.54 1007.3
15 15:55 SW 15 16.09 Mostly Cloudy FEW055 SCT120 BKN200 33 21.1 50% 36 75.62 1008.3
15 14:55 W 11 16.09 Mostly Cloudy FEW065 SCT120 BKN180 33.8 20.5 46% 37 75.64 1008.6
15 13:55 SW 6 16.09 Partly Cloudy FEW015 SCT050 SCT190 32.1 21.6 33.5 24 54% 36 75.64 1008.6 0.53
15 12:55 SE 17 8.05 Thunderstorm Heavy Rain Fog/Mist FEW003 SCT015 SCT048 BKN055 29.2 21.9 65% 32 75.72 1009.6 0.53
15 11:55 W 11 16.09 Partly Cloudy FEW030 FEW100 SCT220 32.1 21.9 55% 36 75.72 1009.6
15 10:55 W 7 16.09 Partly Cloudy FEW095 FEW120 SCT220 30.9 21.9 59% 34 75.74 1010.0
15 09:55 S 11 16.09 Mostly Cloudy SCT095 SCT120 BKN200 28.6 21.8 67% 31 75.77 1010.3
15 08:55 Calm 16.09 Mostly Cloudy BKN080 BKN100 25.1 20.8 77% 26 75.82 1011.0
15 07:55 SW 6 16.09 Mostly Cloudy BKN080 BKN120 23.9 20 23.9 19.4 79% 24 75.87 1011.7
15 06:55 W 6 16.09 Mostly Cloudy BKN080 BKN140 21.9 19.2 85% 75.84 1011.3
15 05:55 W 7 16.09 Mostly Cloudy BKN120 BKN200 20.6 18.2 86% 75.84 1011.3
15 04:55 W 7 16.09 Mostly Cloudy FEW100 BKN200 20 17.8 87% 75.84 1011.3
15 03:55 Calm 16.09 Mostly Cloudy BKN250 21.1 18.3 84% 75.82 1011.0
15 02:55 SW 6 16.09 Partly Cloudy SCT250 20.4 18.3 88% 75.84 1011.3
15 01:55 W 9 16.09 Partly Cloudy SCT250 21.2 17.8 25.1 21.1 81% 75.87 1011.7
15 00:55 Calm 16.09 Mostly Cloudy BKN250 22.2 17.7 76% 75.92 1012.4
14 23:55 W 6 16.09 Partly Cloudy SCT250 22.2 18 77% 75.92 1012.4
14 22:55 S 7 16.09 A Few Clouds FEW070 22.5 18.2 77% 75.92 1012.4
14 21:55 S 7 16.09 A Few Clouds FEW070 22.5 18 76% 75.95 1012.7
14 20:55 SE 11 16.09 A Few Clouds FEW070 23.5 18.1 72% 75.95 1012.7
14 19:55 SE 11 16.09 A Few Clouds FEW060 25 17.9 32 25 65% 26 75.95 1012.7
14 18:55 S 13 16.09 A Few Clouds FEW060 26.6 17.9 59% 28 75.95 1012.7
14 17:55 S 17 16.09 A Few Clouds FEW060 FEW250 28.7 18.7 55% 30 75.95 1012.7
14 16:55 S 15 16.09 A Few Clouds FEW060 29.5 17.6 49% 30 75.95 1012.7
14 15:55 SE 15 16.09 A Few Clouds FEW060 30 17.4 47% 31 76 1013.4
14 14:55 SW 9 16.09 A Few Clouds FEW060 31.3 16.4 41% 31 76.02 1013.7
14 13:55 W 11 16.09 A Few Clouds FEW050 31.2 17.8 31.2 23.1 45% 32 76.07 1014.4
14 12:55 Calm 16.09 A Few Clouds FEW050 30.1 17.8 48% 31 76.1 1014.7
14 11:55 W 7 16.09 A Few Clouds FEW050 29.6 17.1 47% 30 76.17 1015.7
14 10:55 NW 6 16.09 A Few Clouds FEW050 28.5 19.1 57% 30 76.2 1016.1
14 09:55 W 9 16.09 Fair CLR 27 20.3 67% 29 76.23 1016.4
14 08:55 NW 9 16.09 Fair CLR 25.1 20.5 76% 26 76.23 1016.4
14 07:55 NW 6 16.09 Fair CLR 23 20.3 23 19.5 85% 76.25 1016.8
14 06:55 Calm 16.09 Fair CLR 21.5 19.6 89% 76.25 1016.8
14 05:55 W 7 16.09 A Few Clouds FEW200 19.7 18.7 94% 76.23 1016.4
14 04:55 W 7 16.09 A Few Clouds FEW200 19.6 18.4 93% 76.2 1016.1
14 03:55 Calm 16.09 A Few Clouds FEW200 20.5 19.5 94% 76.2 1016.1
14 02:55 W 6 16.09 A Few Clouds FEW200 20.9 19.7 93% 76.17 1015.7
14 01:55 Calm 16.09 A Few Clouds FEW200 21.4 19.8 24.5 21 91% 76.2 1016.1 0.41
14 00:55 Calm 16.09 A Few Clouds FEW200 21.5 20.5 94% 76.25 1016.8
13 23:55 W 7 16.09 A Few Clouds FEW050 21.8 20.9 95% 76.25 1016.8
13 22:55 W 7 16.09 A Few Clouds FEW050 FEW200 22.3 21.4 95% 76.25 1016.8 0.41
13 21:55 SW 6 11.27 Partly Cloudy FEW010 FEW050 SCT200 22.2 21.2 94% 76.3 1017.5
13 20:55 Calm 16.09 Partly Cloudy FEW030 FEW055 SCT200 23.3 21.2 88% 76.28 1017.1 0.18
13 18:55 S 11 16.09 Partly Cloudy FEW040 FEW110 SCT250 29 22.5 68% 32 76.17 1015.7
13 17:55 S 17 16.09 Mostly Cloudy FEW038 SCT110 BKN250 29.1 22.3 67% 32 76.17 1015.7
13 16:55 SE 17 16.09 Mostly Cloudy FEW038 SCT110 BKN230 30.1 22.5 64% 34 76.2 1016.1
13 15:55 SE 15 16.09 Mostly Cloudy SCT038 SCT100 SCT150 BKN230 28.9 21.6 65% 32 76.28 1017.1
13 14:55 SW 11 16.09 Mostly Cloudy FEW040 FEW100 SCT150 BKN230 31.5 21.6 56% 35 76.3 1017.4
13 13:55 SW 9 16.09 Mostly Cloudy FEW030 SCT110 BKN170 BKN220 30.2 22.3 30.6 23.8 63% 34 76.35 1018.1 0.1
13 12:55 S 11 16.09 Mostly Cloudy SCT021 BKN140 BKN210 29.1 22.5 68% 32 76.43 1019.1
13 11:55 SW 9 11.27 Mostly Cloudy SCT016 BKN150 BKN230 27.9 23.2 76% 31 76.48 1019.8
13 10:55 S 7 11.27 Mostly Cloudy SCT015 BKN050 BKN150 BKN230 27.2 23.4 80% 30 76.5 1020.1 0.1
13 09:55 W 9 11.27 Light Rain Fog/Mist SCT005 BKN025 BKN080 OVC200 23.8 21.5 87% 76.53 1020.5 0.1
13 08:55 SW 11 11.27 Overcast OVC008 25.4 23.4 89% 27 76.53 1020.5
13 07:55 S 7 4.83 Light Rain Fog/Mist FEW008 SCT011 BKN035 OVC060 24.6 23 24.7 24 91% 25 76.56 1020.8
13 06:55 Calm 11.27 Overcast BKN013 BKN018 OVC080 24.4 22.6 90% 24 76.58 1021.2
13 05:57 SW 6 16.09 Overcast FEW026 BKN065 OVC110 24.1 22.5 91% 24 76.53 1020.5
13 04:55 W 6 16.09 Mostly Cloudy FEW065 SCT100 BKN130 24.3 22.3 89% 24 76.53 1020.5
13 03:55 SW 7 16.09 Mostly Cloudy SCT065 BKN110 BKN140 24.2 22.2 89% 24 76.53 1020.5
13 02:55 SW 13 16.09 Mostly Cloudy FEW070 SCT120 BKN200 24.5 22.2 87% 25 76.53 1020.5
13 01:55 S 9 16.09 Partly Cloudy FEW075 FEW120 SCT200 24.8 22.3 28.9 24.8 86% 25 76.53 1020.5
13 00:55 SW 11 16.09 Partly Cloudy FEW110 SCT140 SCT250 25.4 22.3 83% 27 76.56 1020.8
12 23:55 SW 9 16.09 Partly Cloudy FEW065 SCT140 SCT250 25.8 22.3 81% 27 76.58 1021.2
12 22:55 SW 9 16.09 Mostly Cloudy FEW065 SCT140 BKN250 26.6 22 76% 29 76.56 1020.8
12 21:55 S 9 16.09 Partly Cloudy FEW065 SCT250 27.1 21.8 73% 29 76.53 1020.5
12 20:55 S 7 16.09 A Few Clouds FEW065 FEW250 27.7 21.9 71% 30 76.5 1020.1
Date Time (edt) Wind (kph) Vis. (km) Weather Sky Cond. Air Dwpt Max. Min. Relative Humidity Wind Chill (°C) Heat Index (°C) altimeter (cm) sea level (mb) 1 hr 3 hr 6 hr
6 hour
Temperature (ºC) Pressure Precipitation (cm)